Lexington, KY

5:03 AM EDT on August 26, 2016 (GMT -0400)
Blue Grass

Weather History for KLEX - February, 2012

Change the Weather History Date:

Thursday, February 9, 2012

  Actual Average Record
Temperature  
Mean Temperature 33 °F 35 °F  
Max Temperature 35 °F 44 °F 70 °F (2001)
Min Temperature 30 °F 27 °F -15 °F (1899)
Degree Days  
Heating Degree Days 32 30  
Month to date heating degree days 219 274  
Since 1 July heating degree days 2667 3057  
Cooling Degree Days 0 0  
Month to date cooling degree days 0 0  
Year to date cooling degree days 0 0  
Moisture  
Dew Point 28 °F    
Average Humidity 81    
Maximum Humidity 92    
Minimum Humidity 69    
Precipitation  
Precipitation T in 0.11 in 1.11 in (1891)
Month to date precipitation 0.86 1.03  
Year to date precipitation 4.40 4.23  
Snow  
Snow T in 0.20 in 2.50 in (1896)
Month to date snowfall 0.7 1.7  
Since 1 July snowfall 1.8 8.4  
Snow Depth 0.00 in    
Sea Level Pressure  
Sea Level Pressure 30.30 in    
Wind  
Wind Speed 3 mph (WSW)    
Max Wind Speed 9 mph    
Max Gust Speed 12 mph    
Visibility 9 miles    
Events      
T = Trace of Precipitation, MM = Missing Value Source: NWS Daily Summary

Daily Weather History Graph

Daily Weather History Graph

Search for Another Location

Airport or City:

Trip Planner

Search our weather history database for the weather conditions in past years. The results will help you decide how hot, cold, wet, or windy it might be!

Date:

Astronomy

Feb. 09, 2012 Rise Set
Actual Time 7:35 AM EST 6:10 PM EST
Civil Twilight 7:08 AM EST 6:37 PM EST
Nautical Twilight 6:37 AM EST 7:08 PM EST
Astronomical Twilight 6:06 AM EST 7:39 PM EST
Moon 8:34 PM EST (2/9) 8:14 AM EST (2/9)
Length of Visible Light 11h 28m
Length of Day
10h 34m
Waning Gibbous, 96% of the Moon is Illuminated
Feb 9
Waning Gibbous
Feb 14
Last Quarter
Feb 21
New
Feb 29
First Quarter
Mar 8
Full

Hourly Weather History & Observations

Time (EST) Temp. Windchill Dew Point Humidity Pressure Visibility Wind Dir Wind Speed Gust Speed Precip Events Conditions
12:54 AM 32.0 °F 28.7 °F 30.0 °F 92% 30.33 in 10.0 mi WSW 3.5 mph - N/A   Overcast
1:36 AM 33.8 °F - 30.2 °F 87% 30.31 in 10.0 mi Calm Calm - N/A   Overcast
1:54 AM 33.1 °F - 30.0 °F 89% 30.34 in 10.0 mi Calm Calm - N/A   Overcast
2:54 AM 33.1 °F - 28.9 °F 85% 30.32 in 10.0 mi Calm Calm - N/A   Overcast
3:54 AM 32.0 °F 28.7 °F 28.9 °F 88% 30.32 in 10.0 mi NW 3.5 mph - N/A   Overcast
4:54 AM 32.0 °F 28.7 °F 28.9 °F 88% 30.32 in 10.0 mi North 3.5 mph - N/A   Overcast
5:22 AM 32.0 °F - 28.4 °F 87% 30.30 in 9.0 mi Calm Calm - N/A   Overcast
5:35 AM 32.0 °F - 28.4 °F 87% 30.30 in 8.0 mi Calm Calm - N/A   Overcast
5:54 AM 32.0 °F - 30.0 °F 92% 30.33 in 7.0 mi Calm Calm - 0.00 in   Overcast
6:01 AM 32.0 °F - 30.2 °F 93% 30.31 in 7.0 mi Calm Calm - 0.00 in   Overcast
6:32 AM 32.0 °F - 30.2 °F 93% 30.31 in 6.0 mi Calm Calm - 0.00 in   Overcast
6:54 AM 32.0 °F - 30.0 °F 92% 30.34 in 7.0 mi Calm Calm - 0.00 in   Overcast
7:04 AM 32.0 °F - 30.2 °F 93% 30.31 in 6.0 mi Calm Calm - N/A   Overcast
7:13 AM 32.0 °F - 30.2 °F 93% 30.32 in 6.0 mi Calm Calm - N/A   Overcast
7:25 AM 32.0 °F - 30.2 °F 93% 30.31 in 5.0 mi Calm Calm - N/A   Overcast
7:42 AM 32.0 °F - 30.2 °F 93% 30.32 in 5.0 mi Calm Calm - N/A   Overcast
7:54 AM 32.0 °F - 30.0 °F 92% 30.35 in 5.0 mi Calm Calm - N/A   Overcast
8:12 AM 32.0 °F 28.7 °F 30.2 °F 93% 30.33 in 5.0 mi West 3.5 mph - N/A   Overcast
8:54 AM 32.0 °F 26.4 °F 28.9 °F 88% 30.36 in 8.0 mi WNW 5.8 mph - N/A   Overcast
9:54 AM 30.9 °F 24.3 °F 27.0 °F 85% 30.36 in 10.0 mi NW 6.9 mph - N/A   Overcast
10:01 AM 30.2 °F 23.4 °F 26.6 °F 86% 30.34 in 10.0 mi WNW 6.9 mph - N/A   Overcast
10:54 AM 30.9 °F 26.2 °F 26.1 °F 82% 30.37 in 10.0 mi WNW 4.6 mph - N/A   Overcast
11:41 AM 32.0 °F 27.5 °F 24.8 °F 75% 30.34 in 10.0 mi West 4.6 mph - N/A   Overcast
11:54 AM 32.0 °F - 25.0 °F 75% 30.36 in 10.0 mi Calm Calm - N/A   Overcast
12:54 PM 33.1 °F - 26.1 °F 75% 30.32 in 10.0 mi Calm Calm - N/A   Overcast
1:54 PM 33.1 °F - 25.0 °F 72% 30.30 in 10.0 mi Calm Calm - N/A   Overcast
2:24 PM 33.8 °F 30.8 °F 24.8 °F 70% 30.26 in 10.0 mi SE 3.5 mph - N/A   Overcast
2:54 PM 34.0 °F 31.0 °F 25.0 °F 70% 30.26 in 10.0 mi South 3.5 mph - N/A   Overcast
3:54 PM 34.0 °F 31.0 °F 26.1 °F 73% 30.27 in 10.0 mi South 3.5 mph - N/A   Overcast
4:27 PM 35.6 °F 31.7 °F 26.6 °F 70% 30.24 in 10.0 mi South 4.6 mph - N/A   Overcast
4:54 PM 35.1 °F 30.1 °F 27.0 °F 72% 30.25 in 10.0 mi South 5.8 mph - N/A   Overcast
5:54 PM 34.0 °F 29.8 °F 27.0 °F 75% 30.25 in 10.0 mi SSE 4.6 mph - N/A   Overcast
6:54 PM 34.0 °F 31.0 °F 28.0 °F 79% 30.24 in 10.0 mi South 3.5 mph - N/A   Overcast
7:54 PM 34.0 °F 31.0 °F 28.0 °F 79% 30.24 in 10.0 mi South 3.5 mph - N/A   Overcast
8:54 PM 34.0 °F - 27.0 °F 75% 30.24 in 10.0 mi Calm Calm - N/A   Overcast
9:54 PM 33.1 °F 26.9 °F 26.1 °F 75% 30.25 in 10.0 mi NW 6.9 mph - N/A   Overcast
10:54 PM 32.0 °F 28.7 °F 26.1 °F 79% 30.25 in 10.0 mi NW 3.5 mph - N/A   Overcast
11:54 PM 30.9 °F 27.5 °F 25.0 °F 79% 30.24 in 10.0 mi NW 3.5 mph - N/A   Overcast